IZ3VCM Weather Reports


Display with metric or nautical units.
time (UTC)temp
F
wind
direction
speed
MPH
gust
MPH
rain 1hr
in
rain 24hr
in
rain mn
in
humidity
%
barometer
mb
20260902214506 74 135 1.0 2.0 0.00 0.00 0.00 73 1016.8
20260902213010 73 135 1.0 2.0 0.00 0.00 0.00 74 1016.7
20260902211507 74 0 0.0 0.0 0.00 0.00 0.00 71 1016.6
20260902210009 75 135 1.0 2.0 0.00 0.00 0.00 70 1016.7
20260902204507 76 135 1.0 3.0 0.00 0.00 0.00 68 1016.6
20260902203009 77 135 2.0 4.0 0.00 0.00 0.00 67 1016.7
20260902201507 77 135 1.0 2.0 0.00 0.00 0.00 66 1016.6
20260902200010 78 135 3.0 4.0 0.00 0.00 0.00 66 1016.5
20260902194506 78 135 2.0 4.0 0.00 0.00 0.00 65 1016.5
20260902193009 78 292 1.0 2.0 0.00 0.00 0.00 65 1016.5
20260902191506 76 0 0.0 0.0 0.00 0.00 0.00 68 1016.3
20260902190009 76 0 0.0 0.0 0.00 0.00 0.00 68 1016.2
20260902184506 76 0 0.0 0.0 0.00 0.00 0.00 67 1016.1
20260902183009 77 0 0.0 0.0 0.00 0.00 0.00 66 1015.9
20260902181507 77 0 0.0 0.0 0.00 0.00 0.00 65 1015.7
20260902180009 80 0 0.0 0.0 0.00 0.00 0.00 61 1015.6
20260902174506 81 0 0.0 0.0 0.00 0.00 0.00 60 1015.4
20260902173009 84 0 0.0 0.0 0.00 0.00 0.00 56 1015.2
20260902171506 87 0 0.0 0.0 0.00 0.00 0.00 52 1015.2
20260902170009 91 0 0.0 0.0 0.00 0.00 0.00 47 1015.2
20260902164506 92 0 0.0 0.0 0.00 0.00 0.00 47 1015.5
20260902163008 92 0 0.0 0.0 0.00 0.00 0.00 46 1015.4
20260902161506 93 292 0.0 1.0 0.00 0.00 0.00 46 1015.3
20260902160010 93 314 1.0 1.0 0.00 0.00 0.00 44 1015.7
20260902154506 94 270 0.0 3.0 0.00 0.00 0.00 45 1015.5
20260902153009 94 0 0.0 0.0 0.00 0.00 0.00 44 1015.5
20260902151506 93 295 3.0 6.0 0.00 0.00 0.00 44 1015.7
20260902150009 94 339 2.0 4.0 0.00 0.00 0.00 45 1015.8
20260902144507 93 0 0.0 0.0 0.00 0.00 0.00 46 1015.8
20260902143008 93 314 1.0 4.0 0.00 0.00 0.00 45 1016.1
20260902141506 93 22 2.0 3.0 0.00 0.00 0.00 45 1016.2
20260902140008 94 306 0.0 4.0 0.00 0.00 0.00 45 1016.6
20260902134506 92 23 0.0 2.0 0.00 0.00 0.00 47 1016.4
20260902133009 92 337 0.0 1.0 0.00 0.00 0.00 45 1016.4
20260902131506 93 0 0.0 0.0 0.00 0.00 0.00 45 1016.7
20260902130009 91 0 0.0 0.0 0.00 0.00 0.00 45 1016.7
20260902124506 91 337 1.0 4.0 0.00 0.00 0.00 46 1016.8
20260902123008 90 0 0.0 0.0 0.00 0.00 0.00 45 1017.1
20260902121506 93 292 0.0 2.0 0.00 0.00 0.00 43 1017.2
20260902120008 92 292 2.0 4.0 0.00 0.00 0.00 44 1017.4
20260902114506 94 23 0.0 2.0 0.00 0.00 0.00 44 1017.5
20260902113008 91 0 0.0 0.0 0.00 0.00 0.00 45 1017.6
20260902111507 91 0 0.0 0.0 0.00 0.00 0.00 45 1017.7
20260902110008 91 292 0.0 2.0 0.00 0.00 0.00 45 1017.9
20260902104505 90 0 0.0 0.0 0.00 0.00 0.00 46 1018.1
20260902103008 89 0 0.0 0.0 0.00 0.00 0.00 46 1018.2
20260902101506 90 203 1.0 3.0 0.00 0.00 0.00 45 1018.4
20260902100007 90 0 0.0 0.0 0.00 0.00 0.00 46 1018.5
20260902094506 90 112 0.0 1.0 0.00 0.00 0.00 46 1018.6
20260902093007 90 0 0.0 0.0 0.00 0.00 0.00 48 1018.6
20260902091507 89 5 1.0 2.0 0.00 0.00 0.00 48 1018.7
20260902090008 88 22 1.0 4.0 0.00 0.00 0.00 50 1018.8
20260902084506 86 45 2.0 4.0 0.00 0.00 0.00 51 1018.7
20260902083007 86 51 3.0 5.0 0.00 0.00 0.00 53 1018.5
20260902081506 86 43 3.0 7.0 0.00 0.00 0.00 52 1018.5
20260902080008 85 45 2.0 2.0 0.00 0.00 0.00 54 1018.4
20260902074506 84 42 1.0 2.0 0.00 0.00 0.00 56 1018.3
20260902073009 83 32 1.0 3.0 0.00 0.00 0.00 59 1018.2
20260902071505 82 27 2.0 2.0 0.00 0.00 0.00 62 1018.0
20260902070009 81 51 2.0 2.0 0.00 0.00 0.00 63 1018.0
20260902064505 80 0 0.0 0.0 0.00 0.00 0.00 65 1017.9
20260902063009 80 0 0.0 0.0 0.00 0.00 0.00 67 1017.9
20260901221506 69 0 0.0 0.0 0.00 0.00 0.00 76 1017.3
20260901220008 69 0 0.0 0.0 0.00 0.00 0.00 76 1017.4